SCP
2 2 2 3 3 5 6 6 6 6 4 3 4 4 4 4 4 4 3 3 2 2 2 2 2 1 1 0 0 0 0 1 0 0 0 1 1 1 0 0 0 0 0
2 2 2 2 3 5 6 6 6 5 3 3 3 4 4 3 3 3 3 3 2 2 2 2 2 1 1 1 1 0 0 1 0 0 1 1 1 1 0 0 0 0 0
2 2 1 2 2 4 5 6 5 4 3 2 3 4 4 3 2 2 3 2 2 1 1 1 1 1 1 1 1 1 1 1 1 1 1 0 1 1 0 0 0 0 0
1 1 1 1 2 3 4 5 4 3 2 2 3 3 3 3 2 2 2 2 2 1 1 1 1 1 1 1 1 1 1 1 1 1 1 0 0 0 0 0 0 0 0
1 0 1 1 2 3 4 4 3 2 2 2 2 3 3 3 2 2 2 2 2 1 1 0 1 1 1 1 1 1 1 1 1 1 1 0 0 0 0 0 0 0 0
1 1 1 2 2 3 3 3 2 2 2 2 2 3 3 3 2 2 2 2 2 1 1 0 0 1 1 0 0 0 1 1 1 1 0 0 0 0 0 0 0 0 0
1 1 1 2 2 2 2 3 2 2 2 2 2 2 3 3 2 2 2 2 2 2 1 1 1 0 0 0 0 0 0 0 0 0 0 0 0 0 0 0 0 0 0
1 1 1 1 1 2 2 2 2 2 2 2 2 2 3 3 2 2 2 2 2 2 2 1 1 1 0 0 0 0 0 0 0 0 0 0 0 0 0 0 0 0 0
1 1 2 2 2 2 2 2 2 2 2 2 2 2 2 2 2 2 2 2 2 2 2 1 1 1 0 0 0 0 0 0 0 0 0 0 0 0 0 0 0 0 0
1 1 2 2 2 2 2 2 2 2 2 2 2 2 2 2 3 3 2 2 2 2 2 2 1 1 1 0 0 0 0 0 0 0 0 0 0 0 0 0 0 0 0
1 1 1 2 2 2 2 2 2 2 2 2 2 2 2 2 3 3 3 2 2 2 2 2 1 1 1 0 0 0 0 0 0 0 0 0 0 0 0 0 0 0 0
1 1 1 1 1 2 2 2 2 2 2 2 2 2 2 2 3 3 3 3 2 2 2 1 1 1 1 1 0 0 0 0 0 0 0 0 0 0 0 0 0 0 0
1 1 1 1 1 1 2 2 2 2 3 3 2 2 2 2 2 3 3 3 3 2 2 1 1 1 1 1 0 0 0 0 0 0 0 0 0 0 0 0 0 0 0
1 1 1 1 1 1 1 2 2 3 3 3 2 2 2 2 2 2 3 3 3 2 2 1 1 1 1 1 0 0 0 0 0 0 0 0 0 0 0 0 0 0 0
1 1 1 1 0 0 1 1 2 3 3 2 2 2 1 1 2 2 2 2 3 2 2 1 1 1 1 0 0 0 0 0 0 0 0 0 0 0 0 0 0 0 0
1 1 1 1 0 0 0 1 1 2 2 2 2 1 1 1 2 2 2 2 2 2 2 1 1 1 0 0 0 0 0 0 0 0 0 0 0 0 0 0 0 0 0
1 1 1 1 0 0 0 0 1 1 1 1 1 1 1 1 2 1 1 1 1 1 1 1 1 1 1 0 0 0 0 0 0 0 0 0 0 0 0 0 0 0 0
0 0 0 0 0 0 0 0 0 1 1 1 1 1 1 1 1 0 0 0 0 0 1 1 1 1 0 0 0 0 0 0 0 0 0 0 0 0 0 0 0 0 0
0 0 0 0 0 0 0 0 0 0 0 0 0 0 1 1 0 0 0 0 0 0 0 0 0 0 0 0 0 0 0 0 0 0 0 0 0 0 0 0 0 0 0
0 0 0 0 0 0 0 0 0 0 0 0 0 0 0 0 0 0 0 0 0 0 0 0 0 0 0 0 0 0 0 0 0 0 0 0 0 0 0 0 0 0 0
0 0 0 0 0 0 0 0 0 0 0 0 0 0 0 0 0 0 0 0 0 0 0 0 0 0 0 0 0 0 0 0 0 0 0 0 0 0 0 0 0 0 0
0 0 0 0 0 0 0 0 0 0 0 0 0 0 0 0 0 0 0 0 0 0 0 0 0 0 0 0 0 0 0 0 0 0 0 0 0 0 0 0 0 0 0
0 0 0 0 0 0 0 0 0 0 0 0 0 0 0 0 0 0 0 0 0 0 0 0 0 0 0 0 0 0 0 0 0 0 0 0 0 0 0 0 0 0 0
0 0 0 0 0 0 0 0 0 0 0 0 0 0 0 0 0 0 0 0 0 0 0 0 0 0 0 0 0 0 0 0 0 0 0 0 0 0 0 0 0 0 0
0 0 0 0 0 0 0 0 0 0 0 0 0 0 0 0 0 0 0 0 0 0 0 0 0 0 0 0 0 0 0 0 0 0 0 0 0 0 0 0 0 0 0
0 0 0 0 0 0 0 0 0 0 0 0 0 0 0 0 0 0 0 0 0 0 0 0 0 0 0 0 0 0 0 0 0 0 0 0 0 0 0 0 0 0 0
Wind_Speed
9 8 7 7 6 6 7 6 6 5 4 4 5 5 4 4 3 3 4 4 3 3 3 3 4 3 3 4 4 3 3 2 1 1 1 1 2 2 2 2 2 2 2
8 7 7 7 7 7 7 7 6 6 5 4 4 3 3 3 2 3 3 4 3 3 2 3 3 3 3 4 4 3 3 2 2 2 2 2 2 3 2 2 3 3 2
10 8 8 8 7 7 7 6 6 5 5 5 4 3 3 2 2 3 3 3 3 3 3 3 3 3 3 3 4 4 4 3 2 2 2 2 2 2 2 3 3 3 3
10 9 8 8 8 7 6 6 6 4 4 6 6 6 5 4 4 3 3 3 3 3 3 2 3 3 3 3 4 4 3 4 3 3 2 3 2 3 2 3 3 3 4
10 9 8 8 7 5 5 5 5 4 4 5 6 7 5 4 3 3 4 4 3 3 3 3 3 3 3 3 4 3 3 3 3 3 2 3 2 4 4 4 3 3 3
9 8 6 6 4 4 5 5 5 5 5 5 5 6 7 6 5 5 4 4 3 3 3 3 2 3 3 3 3 3 3 2 3 2 3 3 3 3 3 5 4 4 3
7 7 6 5 5 6 6 5 6 5 5 5 5 6 6 7 7 6 5 4 3 3 4 3 3 3 3 3 3 3 3 3 3 3 3 3 3 3 3 4 4 5 4
5 6 6 6 6 5 5 5 6 6 5 5 5 5 6 5 4 5 4 4 3 3 4 4 4 4 4 4 4 3 3 3 3 3 3 2 2 2 3 3 3 4 4
4 4 5 5 5 5 5 5 6 6 5 5 5 5 5 5 4 4 4 3 3 3 4 4 4 4 4 4 4 3 3 3 3 3 3 2 2 2 2 2 3 4 5
2 2 3 4 4 4 4 5 5 6 5 5 5 4 5 5 4 4 4 4 4 4 4 4 4 4 4 4 4 3 3 3 3 3 3 2 2 2 2 2 3 4 5
2 2 2 2 2 3 3 4 5 5 5 5 4 4 5 5 5 4 4 4 4 4 4 4 4 4 4 4 4 4 4 4 4 3 3 3 3 2 2 2 3 3 4
3 2 1 1 2 2 2 3 3 4 4 4 4 4 4 5 4 4 4 4 4 4 4 4 4 4 3 4 4 4 4 4 4 4 3 3 2 3 3 3 4 4 4
3 2 1 1 1 2 2 3 3 3 3 3 4 4 4 4 4 4 4 4 3 3 3 3 4 3 3 3 4 4 4 4 4 4 4 4 3 4 3 3 4 3 3
3 3 2 2 1 1 2 2 2 3 3 3 4 4 4 4 4 4 3 3 3 3 4 3 3 4 3 3 3 4 4 3 3 3 4 4 4 4 4 4 4 4 4
4 4 3 2 2 2 1 2 2 2 3 4 4 4 3 3 3 3 3 3 3 3 4 3 3 3 3 3 4 3 3 4 3 4 4 4 5 5 4 4 4 4 3
4 4 3 3 3 3 2 2 2 2 3 4 4 3 3 3 3 3 3 3 3 3 3 4 4 4 3 4 5 4 3 4 4 4 4 4 4 5 5 5 5 5 4
4 4 3 3 4 3 3 3 2 2 3 3 3 3 4 3 3 3 3 3 3 3 3 3 4 4 3 4 4 5 4 4 4 4 4 3 3 4 4 4 4 5 6
4 4 4 4 4 3 2 2 2 2 3 3 3 3 3 3 3 3 3 3 3 3 3 3 3 3 3 4 4 4 4 4 4 4 4 4 4 3 3 3 4 4 4
4 3 3 4 3 3 2 1 2 1 2 2 2 3 3 4 4 3 3 3 3 2 2 3 3 3 3 4 4 3 3 3 4 4 4 4 4 4 4 4 3 3 3
3 3 3 3 2 2 1 1 1 1 1 1 1 2 3 3 4 3 3 2 2 2 2 2 2 3 3 4 4 4 2 2 3 3 3 4 5 4 4 3 3 3 3
3 3 2 2 2 2 1 1 1 1 1 1 1 1 2 2 3 3 2 3 2 2 2 2 2 2 3 3 4 4 3 3 3 3 3 3 4 4 4 4 3 3 4
3 3 2 2 2 2 1 1 2 1 1 1 2 2 2 2 2 3 3 3 3 3 2 2 2 1 2 2 3 3 3 3 3 3 2 2 3 4 4 3 2 2 3
3 3 2 3 3 2 2 2 1 0 1 2 2 2 2 2 2 3 3 3 2 2 2 2 2 1 1 2 3 3 3 3 3 2 3 3 3 3 2 1 1 1 1
3 3 3 3 3 3 2 2 1 1 2 2 2 2 2 2 2 2 2 2 3 3 2 2 2 2 2 2 1 1 1 1 1 1 1 1 1 1 0 0 1 1 1
3 3 3 3 3 3 2 2 1 1 2 2 2 2 2 2 2 2 1 2 2 3 3 3 3 3 2 2 3 2 1 1 1 0 0 0 0 0 0 0 1 1 1
3 3 3 3 3 2 2 2 1 2 2 2 2 2 2 2 2 2 1 1 2 2 3 3 3 3 3 3 3 3 3 2 2 0 1 1 1 1 1 1 1 1 1
Wind_Direction
231 227 225 219 208 201 199 192 191 193 181 181 176 175 176 173 171 175 176 178 184 188 193 180 179 183 187 189 183 179 176 177 192 217 240 238 232 231 243 261 270 272 278
230 225 217 211 207 203 198 196 195 195 190 189 185 178 167 167 166 164 177 182 179 182 190 186 183 186 185 191 188 191 193 181 216 245 253 247 224 208 231 247 260 265 265
227 222 216 208 206 203 198 197 199 199 194 181 166 155 145 149 171 177 181 181 181 185 186 204 195 189 186 191 194 198 205 194 202 237 253 258 266 290 216 235 248 259 267
226 223 218 211 211 202 193 196 195 195 192 184 180 177 182 187 192 186 181 181 187 190 188 195 201 195 199 197 197 205 214 205 203 209 240 266 288 265 260 225 236 260 270
224 220 217 216 211 202 192 196 191 187 190 194 191 189 192 195 183 180 183 186 186 191 192 189 201 195 199 207 204 208 213 217 220 219 220 230 236 248 258 263 256 258 259
228 223 216 214 203 198 197 192 184 186 191 196 197 199 195 190 187 188 188 189 191 197 195 192 203 202 200 205 200 205 210 213 222 233 235 235 230 233 249 264 268 271 272
223 216 211 208 202 195 189 185 185 190 194 197 202 204 202 198 199 197 196 192 195 205 204 195 201 207 202 199 193 197 212 217 220 230 244 255 255 255 254 261 271 274 282
227 217 209 204 199 193 189 188 190 195 199 200 206 206 203 202 202 203 203 205 205 209 209 204 201 208 200 193 193 194 206 221 225 230 235 247 260 251 245 255 268 274 273
234 221 212 206 200 200 199 197 199 203 204 204 203 209 203 208 204 199 203 208 208 201 202 206 201 204 201 195 191 196 203 214 228 230 235 244 260 259 256 254 253 262 275
266 227 217 215 213 209 207 205 207 206 207 207 205 210 204 204 201 199 201 202 203 200 195 195 200 202 205 200 196 196 204 209 223 229 231 237 256 260 262 259 257 255 262
291 263 232 219 203 200 205 205 205 204 201 202 204 205 203 197 197 199 202 202 199 197 197 197 200 204 208 202 204 203 201 209 219 224 228 233 253 255 252 257 258 260 261
296 289 244 222 199 200 211 210 205 203 201 198 198 201 200 193 193 197 198 196 200 200 202 200 199 202 204 205 210 209 208 209 216 224 229 237 256 256 253 253 256 262 268
303 298 283 247 220 219 224 222 214 202 197 195 193 192 201 197 195 196 191 193 197 197 201 200 202 204 204 206 215 217 215 214 219 224 234 242 250 254 253 260 266 268 276
302 299 298 291 257 247 246 230 222 204 194 195 194 195 202 197 194 193 189 190 194 197 201 201 204 206 203 206 212 217 213 219 224 231 243 245 246 255 253 259 265 273 280
307 304 306 303 296 271 262 249 227 202 192 196 197 199 195 189 184 186 187 188 193 198 203 199 201 207 206 206 211 220 219 220 225 235 247 252 258 270 267 266 270 275 277
298 305 310 308 304 288 267 249 238 212 195 196 198 190 183 180 180 180 180 183 188 193 199 202 202 209 212 206 214 221 221 226 229 236 248 250 250 257 261 268 270 273 272
296 302 301 299 300 295 277 248 244 221 201 197 193 188 183 182 184 181 180 187 194 197 203 203 209 216 209 206 216 221 228 227 233 237 241 250 254 247 250 260 261 266 270
295 300 304 301 301 296 283 252 223 209 197 190 189 189 188 183 182 185 189 195 197 203 210 207 213 216 208 206 215 225 236 241 242 242 245 246 255 244 254 266 271 277 283
285 294 302 301 304 304 293 227 216 196 183 192 195 197 188 181 182 188 192 195 196 207 213 210 209 215 211 207 212 233 243 244 254 256 252 249 257 244 256 262 269 284 301
315 323 319 308 303 301 281 208 209 199 208 217 215 202 190 185 188 190 192 192 194 206 203 206 212 216 219 210 222 233 234 241 259 264 254 249 251 242 249 261 257 271 294
331 334 322 308 304 307 290 237 225 232 240 215 193 183 184 189 186 181 184 179 181 195 199 199 214 220 221 218 231 241 242 234 245 253 259 253 242 249 251 266 259 265 294
332 329 326 321 321 317 277 258 253 249 180 175 178 173 168 171 175 175 175 176 173 186 190 191 216 226 221 236 237 246 252 257 250 252 264 253 240 254 262 272 269 285 299
320 322 321 318 316 306 269 252 268 222 174 172 174 163 160 168 174 179 176 174 179 191 192 197 211 228 251 244 242 245 247 258 265 260 265 256 245 254 257 253 263 280 284
321 321 315 307 306 306 295 273 261 204 181 183 179 169 166 166 168 180 188 186 192 198 196 206 212 221 241 247 251 238 220 220 251 268 198 198 230 229 173 312 326 322 309
313 308 297 295 299 301 293 290 258 198 189 193 185 174 172 167 170 182 193 211 232 226 216 214 213 219 234 251 271 280 264 268 292 316 187 192 199 217 263 340 340 339 331
306 302 298 298 303 306 296 290 262 218 191 185 186 183 176 174 177 164 147 158 222 235 245 249 247 251 248 251 256 267 264 221 173 172 188 207 219 235 250 272 304 311 309